Cullman, AL

7:02 PM CDT on June 26, 2017 (GMT -0500)
Cullman

Weather History for K3A1 - October, 2012

Change the Weather History Date:

Thursday, October 4, 2012

  Actual Average (KHSV) Record (KHSV)
Temperature  
Mean Temperature 65 °F -  
Max Temperature 78 °F 77 °F 95 °F (1925)
Min Temperature 52 °F 52 °F 36 °F (1987)
Growing Degree Days 15 (Base 50)    
Moisture  
Dew Point 57 °F    
Average Humidity 82    
Maximum Humidity 99    
Minimum Humidity 46    
Precipitation  
Precipitation 0.00 in - - ()
Sea Level Pressure  
Sea Level Pressure 30.26 in    
Wind  
Wind Speed 0 mph (NW)    
Max Wind Speed 5 mph    
Max Gust Speed -    
Visibility 8 miles    
Events      
Averages and records for this station are not official NWS values.
T = Trace of Precipitation, MM = Missing Value Source: NWS Daily Summary

Daily Weather History Graph

Daily Weather History Graph

Search for Another Location

Airport or City:

Trip Planner

Search our weather history database for the weather conditions in past years. The results will help you decide how hot, cold, wet, or windy it might be!

Date:

Astronomy

Oct. 04, 2012 Rise Set
Actual Time 6:44 AM CDT 6:26 PM CDT
Civil Twilight 6:19 AM CDT 6:51 PM CDT
Nautical Twilight 5:50 AM CDT 7:20 PM CDT
Astronomical Twilight 5:21 AM CDT 7:49 PM CDT
Moon 9:14 PM CDT (10/4) 10:49 AM CDT (10/4)
Length of Visible Light 12h 32m
Length of Day
11h 42m
Waning Gibbous, 82% of the Moon is Illuminated
Oct 4
Waning Gibbous
Oct 8
Last Quarter
Oct 15
New
Oct 21
First Quarter
Oct 29
Full

Hourly Weather History & Observations

Time (CDT) Temp. Dew Point Humidity Pressure Visibility Wind Dir Wind Speed Gust Speed Precip Events Conditions
12:15 AM 55.6 °F 55.0 °F 98% 30.22 in 7.0 mi Calm Calm - N/A   Clear
12:35 AM 55.9 °F 55.4 °F 98% 30.23 in 7.0 mi Calm Calm - N/A   Clear
12:55 AM 55.6 °F 55.0 °F 98% 30.23 in 5.0 mi Calm Calm - N/A   Clear
1:15 AM 55.6 °F 55.0 °F 98% 30.23 in 7.0 mi Calm Calm - N/A   Clear
1:35 AM 55.6 °F 54.9 °F 97% 30.23 in 7.0 mi Calm Calm - N/A   Clear
1:55 AM 55.2 °F 54.3 °F 97% 30.23 in 7.0 mi NNE 3.5 mph - N/A   Clear
2:15 AM 54.7 °F 54.1 °F 98% 30.23 in 7.0 mi Calm Calm - N/A   Clear
2:35 AM 54.9 °F 54.0 °F 97% 30.23 in 7.0 mi Calm Calm - N/A   Clear
2:55 AM 54.1 °F 53.8 °F 99% 30.24 in 7.0 mi Calm Calm - N/A   Clear
3:15 AM 54.0 °F 53.6 °F 99% 30.23 in 7.0 mi Calm Calm - N/A   Clear
3:35 AM 54.1 °F 53.6 °F 98% 30.23 in 7.0 mi Calm Calm - N/A   Clear
3:55 AM 54.0 °F 53.2 °F 97% 30.24 in 7.0 mi Calm Calm - N/A   Clear
4:15 AM 53.8 °F 53.2 °F 98% 30.24 in 7.0 mi Calm Calm - N/A   Clear
4:35 AM 53.6 °F 53.1 °F 98% 30.25 in 7.0 mi Calm Calm - N/A   Clear
4:55 AM 53.4 °F 53.1 °F 99% 30.26 in 7.0 mi Calm Calm - N/A   Clear
5:15 AM 52.9 °F 52.5 °F 99% 30.27 in 7.0 mi NE 3.5 mph - N/A   Clear
5:35 AM 52.9 °F 52.5 °F 99% 30.27 in 7.0 mi Calm Calm - N/A   Clear
5:55 AM 53.2 °F 52.9 °F 99% 30.28 in 7.0 mi Calm Calm - N/A   Clear
6:15 AM 53.2 °F 52.7 °F 98% 30.28 in 5.0 mi Calm Calm - N/A   Clear
6:35 AM 52.7 °F 52.2 °F 98% 30.28 in 5.0 mi Calm Calm - N/A   Clear
6:55 AM 52.5 °F 52.2 °F 99% 30.29 in 4.0 mi Calm Calm - N/A   Clear
7:15 AM 52.7 °F 52.3 °F 99% 30.30 in 5.0 mi Calm Calm - N/A   Clear
7:35 AM 53.8 °F 53.2 °F 98% 30.30 in 7.0 mi Calm Calm - N/A   Clear
7:55 AM 56.1 °F 54.9 °F 96% 30.30 in 7.0 mi Calm Calm - N/A   Clear
8:15 AM 59.2 °F 57.2 °F 93% 30.30 in 10.0 mi Calm Calm - N/A   Clear
8:35 AM 62.1 °F 58.5 °F 88% 30.31 in 10.0 mi Calm Calm - N/A   Clear
8:55 AM 64.4 °F 59.0 °F 83% 30.31 in 10.0 mi Calm Calm - N/A   Clear
9:15 AM 66.4 °F 58.8 °F 77% 30.31 in 10.0 mi Calm Calm - N/A   Clear
9:35 AM 67.6 °F 59.4 °F 75% 30.31 in 10.0 mi Calm Calm - N/A   Clear
10:15 AM 70.3 °F 58.8 °F 67% 30.32 in 10.0 mi Calm Calm - N/A   Clear
10:35 AM 71.8 °F 59.2 °F 64% 30.32 in 10.0 mi West 3.5 mph - N/A   Clear
10:55 AM 73.0 °F 58.8 °F 61% 30.32 in 10.0 mi South 3.5 mph - N/A   Clear
11:35 AM 74.3 °F 59.4 °F 60% 30.31 in 10.0 mi Calm Calm - N/A   Scattered Clouds
11:55 AM 74.7 °F 59.4 °F 59% 30.31 in 10.0 mi Calm Calm - N/A   Scattered Clouds
12:15 PM 74.3 °F 59.4 °F 60% 30.31 in 10.0 mi Calm Calm - N/A   Scattered Clouds
12:35 PM 75.6 °F 59.5 °F 57% 30.30 in 10.0 mi Calm Calm - N/A   Scattered Clouds
12:55 PM 76.3 °F 59.4 °F 56% 30.29 in 10.0 mi Calm Calm - N/A   Scattered Clouds
1:15 PM 75.7 °F 59.2 °F 56% 30.28 in 10.0 mi WNW 4.6 mph - N/A   Scattered Clouds
1:35 PM 77.7 °F 59.5 °F 53% 30.28 in 10.0 mi WNW 3.5 mph - N/A   Scattered Clouds
1:55 PM 75.9 °F 60.4 °F 59% 30.27 in 10.0 mi Calm Calm - N/A   Scattered Clouds
2:15 PM 76.8 °F 58.6 °F 53% 30.26 in 10.0 mi West 3.5 mph - N/A   Clear
2:35 PM 77.0 °F 58.5 °F 53% 30.26 in 10.0 mi Calm Calm - N/A   Clear
2:55 PM 78.1 °F 57.9 °F 50% 30.25 in 10.0 mi WNW 3.5 mph - N/A   Clear
3:15 PM 77.9 °F 58.3 °F 51% 30.26 in 10.0 mi NW 3.5 mph - N/A   Clear
3:35 PM 78.3 °F 57.6 °F 49% 30.25 in 10.0 mi Calm Calm - N/A   Clear
3:55 PM 78.3 °F 57.0 °F 48% 30.25 in 10.0 mi Calm Calm - N/A   Clear
4:15 PM 77.4 °F 57.4 °F 50% 30.25 in 10.0 mi Calm Calm - N/A   Clear
4:35 PM 78.3 °F 56.1 °F 46% 30.24 in 10.0 mi Calm Calm - N/A   Clear
4:55 PM 78.4 °F 57.2 °F 48% 30.24 in 10.0 mi Calm Calm - N/A   Clear
5:15 PM 78.4 °F 57.7 °F 49% 30.24 in 10.0 mi Calm Calm - N/A   Clear
5:35 PM 76.1 °F 60.4 °F 58% 30.24 in 10.0 mi Calm Calm - N/A   Clear
5:55 PM 73.6 °F 63.1 °F 70% 30.23 in 10.0 mi Calm Calm - N/A   Clear
6:15 PM 70.0 °F 63.3 °F 79% 30.23 in 10.0 mi Calm Calm - N/A   Clear
6:35 PM 66.4 °F 62.6 °F 88% 30.23 in 10.0 mi Calm Calm - N/A   Clear
6:55 PM 64.4 °F 61.7 °F 91% 30.23 in 10.0 mi Calm Calm - N/A   Clear
7:15 PM 63.0 °F 61.0 °F 93% 30.24 in 10.0 mi Calm Calm - N/A   Clear
7:35 PM 62.1 °F 60.8 °F 96% 30.24 in 10.0 mi Calm Calm - N/A   Clear
8:15 PM 60.8 °F 59.9 °F 97% 30.24 in 10.0 mi Calm Calm - N/A   Clear
8:35 PM 60.4 °F 59.4 °F 96% 30.24 in 10.0 mi NNE 3.5 mph - N/A   Clear
8:55 PM 60.1 °F 59.2 °F 97% 30.24 in 7.0 mi Calm Calm - N/A   Clear
9:15 PM 60.1 °F 59.0 °F 96% 30.25 in 7.0 mi Calm Calm - N/A   Clear
9:35 PM 59.4 °F 58.6 °F 97% 30.25 in 7.0 mi Calm Calm - N/A   Clear
9:55 PM 59.0 °F 58.3 °F 97% 30.26 in 7.0 mi Calm Calm - N/A   Clear
10:15 PM 58.6 °F 57.9 °F 97% 30.26 in 7.0 mi Calm Calm - N/A   Clear
10:35 PM 58.3 °F 57.7 °F 98% 30.26 in 7.0 mi Calm Calm - N/A   Clear
10:55 PM 58.1 °F 57.6 °F 98% 30.25 in 7.0 mi Calm Calm - N/A   Clear
11:15 PM 57.4 °F 56.8 °F 98% 30.25 in 5.0 mi Calm Calm - N/A   Clear
11:35 PM 57.4 °F 57.0 °F 99% 30.25 in 7.0 mi Calm Calm - N/A   Clear
11:55 PM 56.8 °F 56.5 °F 99% 30.25 in 3.0 mi Calm Calm - N/A   Clear